Location: Bamazo
(6.7448°N, 10.8189°W)
Time: 01:33:38
(UTC+00:00)

Cosmos 1300 Rocket - Pass Details

Date: 18 September 2020
Orbit: 602 x 626 km, 82.5° (Epoch: 20 October)

Event Time Altitude Azimuth Distance (km) Brightness Sun altitude
Rises 19:42:17 0° 177° (S) 2,859 6.9 -16.0°
Reaches altitude 10° 19:44:31 10° 174° (S) 1,958 6.0 -16.5°
Maximum altitude 19:48:47 62° 94° (E) 690 3.4 -17.6°
Drops below altitude 10° 19:53:06 10° 13° (NNE) 1,969 6.0 -18.7°
Sets 19:55:20 0° 10° (N) 2,877 6.9 -19.2°
